{"data":{"norad_id":44905,"epoch":"2026-09-20T04:43:32.517696Z","epoch_age_seconds":87773,"freshness":"FRESH","line1":"1 44905U 19096A   26263.19690414  .00000053  00000+0  30914-3 0  9997","line2":"2 44905  82.5270  25.7211 0012552 307.4391  52.5546 12.42872693305489","mean_motion":12.42872693,"eccentricity":0.0012552,"inclination_deg":82.527,"raan_deg":25.7211,"arg_perigee_deg":307.4391,"mean_anomaly_deg":52.5546,"bstar":0.00030914,"rev_number":30548,"period_min":115.86061936273,"perigee_km":1484.5672739381,"apogee_km":1504.3306136915,"semimajor_km":7872.5859438148,"source":"CELESTRAK","updated_at":"2026-09-20T09:00:14.572969Z"}}